TimeAKST,TemperatureF,Dew PointF,Humidity,Sea Level PressureIn,VisibilityMPH,Wind Direction,Wind SpeedMPH,Gust SpeedMPH,PrecipitationIn,Events,Conditions,WindDirDegrees,DateUTC
12:16 AM,1.4,-9.4,61,29.44,10.0,East,17.3,-,N/A,,Clear,80,2013-02-21 09:16:00
12:36 AM,1.4,-9.4,61,29.44,10.0,East,16.1,-,N/A,,Clear,80,2013-02-21 09:36:00
12:56 AM,1.4,-9.4,61,29.44,10.0,East,16.1,20.7,N/A,,Clear,90,2013-02-21 09:56:00
1:16 AM,1.4,-9.4,61,29.44,10.0,East,15.0,-,N/A,,Clear,80,2013-02-21 10:16:00
1:36 AM,1.4,-9.4,61,29.44,10.0,East,17.3,-,N/A,,Clear,80,2013-02-21 10:36:00
1:56 AM,1.4,-7.6,66,29.45,10.0,East,13.8,-,N/A,,Clear,80,2013-02-21 10:56:00
2:16 AM,1.4,-9.4,61,29.45,10.0,East,12.7,-,N/A,,Clear,80,2013-02-21 11:16:00
2:56 AM,1.4,-9.4,61,29.45,10.0,East,17.3,-,N/A,,Clear,80,2013-02-21 11:56:00
3:16 AM,-0.4,-11.2,60,29.45,10.0,East,13.8,-,N/A,,Clear,80,2013-02-21 12:16:00
3:36 AM,-0.4,-9.4,66,29.45,10.0,East,12.7,-,N/A,,Clear,80,2013-02-21 12:36:00
3:56 AM,-0.4,-11.2,60,29.44,10.0,East,17.3,-,N/A,,Clear,80,2013-02-21 12:56:00
4:16 AM,-0.4,-9.4,66,29.43,10.0,East,13.8,-,N/A,,Clear,80,2013-02-21 13:16:00
4:36 AM,-0.4,-11.2,60,29.42,10.0,East,17.3,21.9,N/A,,Clear,80,2013-02-21 13:36:00
4:56 AM,-0.4,-9.4,66,29.42,10.0,East,16.1,-,N/A,,Clear,90,2013-02-21 13:56:00
5:16 AM,-0.4,-9.4,66,29.42,10.0,East,17.3,25.3,N/A,,Clear,80,2013-02-21 14:16:00
5:36 AM,-0.4,-11.2,60,29.42,10.0,East,21.9,26.5,N/A,,Clear,80,2013-02-21 14:36:00
5:56 AM,-0.4,-11.2,60,29.42,10.0,East,18.4,-,N/A,,Clear,90,2013-02-21 14:56:00
6:16 AM,-0.4,-11.2,60,29.42,10.0,East,17.3,-,N/A,,Clear,90,2013-02-21 15:16:00
6:36 AM,-0.4,-11.2,60,29.42,10.0,East,17.3,25.3,N/A,,Clear,90,2013-02-21 15:36:00
6:56 AM,-0.4,-9999,N/A,29.42,10.0,East,13.8,-,N/A,,Clear,80,2013-02-21 15:56:00
7:16 AM,-0.4,-11.2,60,29.42,10.0,East,12.7,-,N/A,,Clear,80,2013-02-21 16:16:00
7:36 AM,-0.4,-11.2,60,29.41,10.0,East,17.3,-,N/A,,Clear,80,2013-02-21 16:36:00
7:56 AM,-0.4,-11.2,60,29.41,10.0,East,17.3,-,N/A,,Clear,90,2013-02-21 16:56:00
8:16 AM,-2.2,-11.2,66,29.41,10.0,East,13.8,-,N/A,,Clear,100,2013-02-21 17:16:00
8:36 AM,-2.2,-11.2,66,29.41,10.0,East,13.8,-,N/A,,Clear,100,2013-02-21 17:36:00
8:56 AM,-2.2,-13.0,60,29.41,10.0,East,13.8,-,N/A,,Clear,100,2013-02-21 17:56:00
9:16 AM,-2.2,-11.2,66,29.40,10.0,East,16.1,-,N/A,,Clear,100,2013-02-21 18:16:00
9:36 AM,-2.2,-14.8,55,29.40,10.0,East,13.8,-,N/A,,Clear,90,2013-02-21 18:36:00
9:56 AM,-2.2,-11.2,66,29.40,10.0,East,16.1,-,N/A,,Clear,90,2013-02-21 18:56:00
10:16 AM,-2.2,-11.2,66,29.40,10.0,East,18.4,23.0,N/A,,Clear,90,2013-02-21 19:16:00
10:36 AM,-0.4,-11.2,60,29.39,10.0,East,21.9,27.6,N/A,,Clear,90,2013-02-21 19:36:00
10:56 AM,-0.4,-11.2,60,29.39,10.0,East,24.2,-,N/A,,Clear,80,2013-02-21 19:56:00
11:16 AM,-0.4,-11.2,60,29.39,10.0,East,18.4,-,N/A,,Clear,90,2013-02-21 20:16:00
11:36 AM,-0.4,-11.2,60,29.40,10.0,East,18.4,-,N/A,,Scattered Clouds,90,2013-02-21 20:36:00
11:56 AM,-0.4,-11.2,60,29.40,10.0,East,18.4,23.0,N/A,,Partly Cloudy,100,2013-02-21 20:56:00
12:16 PM,-0.4,-11.2,60,29.40,10.0,East,19.6,-,N/A,,Partly Cloudy,90,2013-02-21 21:16:00
12:36 PM,-0.4,-9.4,66,29.40,10.0,East,18.4,-,N/A,,Mostly Cloudy,90,2013-02-21 21:36:00
12:56 PM,-0.4,-9.4,66,29.40,10.0,East,19.6,-,N/A,,Overcast,90,2013-02-21 21:56:00
1:16 PM,1.4,-9.4,61,29.40,10.0,East,18.4,24.2,N/A,,Mostly Cloudy,90,2013-02-21 22:16:00
1:36 PM,1.4,-9.4,61,29.41,10.0,East,18.4,25.3,N/A,,Overcast,80,2013-02-21 22:36:00
1:56 PM,1.4,-9.4,61,29.41,10.0,East,16.1,23.0,N/A,,Overcast,80,2013-02-21 22:56:00
2:16 PM,1.4,-9.4,61,29.41,10.0,East,18.4,24.2,N/A,,Overcast,90,2013-02-21 23:16:00
2:36 PM,1.4,-9.4,61,29.41,10.0,East,15.0,-,N/A,,Mostly Cloudy,90,2013-02-21 23:36:00
2:56 PM,1.4,-9.4,61,29.41,10.0,East,17.3,-,N/A,,Scattered Clouds,90,2013-02-21 23:56:00
3:16 PM,1.4,-9.4,61,29.41,10.0,East,15.0,-,N/A,,Mostly Cloudy,100,2013-02-22 00:16:00
3:36 PM,3.2,-9.4,56,29.41,10.0,East,15.0,-,N/A,,Overcast,100,2013-02-22 00:36:00
3:56 PM,1.4,-9.4,61,29.41,10.0,ESE,13.8,-,N/A,,Mostly Cloudy,110,2013-02-22 00:56:00
4:16 PM,1.4,-9.4,61,29.41,10.0,ESE,12.7,-,N/A,,Overcast,120,2013-02-22 01:16:00
4:36 PM,-0.4,-9.4,66,29.41,10.0,ESE,9.2,-,N/A,,Mostly Cloudy,120,2013-02-22 01:36:00
4:56 PM,1.4,-7.6,66,29.42,10.0,East,16.1,-,N/A,,Overcast,80,2013-02-22 01:56:00
5:16 PM,1.4,-11.2,56,29.42,10.0,ESE,11.5,-,N/A,,Mostly Cloudy,110,2013-02-22 02:16:00
5:36 PM,-0.4,-7.6,72,29.42,10.0,East,9.2,-,N/A,,Overcast,90,2013-02-22 02:36:00
5:56 PM,-0.4,-11.2,60,29.42,10.0,East,5.8,-,N/A,,Overcast,80,2013-02-22 02:56:00
6:16 PM,-0.4,-7.6,72,29.42,10.0,East,8.1,-,N/A,,Overcast,80,2013-02-22 03:16:00
6:36 PM,1.4,-9.4,61,29.43,10.0,ENE,6.9,-,N/A,,Overcast,70,2013-02-22 03:36:00
6:56 PM,1.4,-9.4,61,29.43,10.0,ENE,8.1,-,N/A,,Overcast,70,2013-02-22 03:56:00
7:16 PM,1.4,-9.4,61,29.44,10.0,ENE,6.9,-,N/A,,Overcast,60,2013-02-22 04:16:00
7:36 PM,-0.4,-7.6,72,29.44,10.0,East,4.6,-,N/A,,Overcast,80,2013-02-22 04:36:00
7:56 PM,-0.4,-9.4,66,29.45,10.0,East,8.1,-,N/A,,Overcast,90,2013-02-22 04:56:00
8:16 PM,-0.4,-7.6,72,29.45,10.0,East,8.1,-,N/A,,Overcast,90,2013-02-22 05:16:00
8:36 PM,-0.4,-7.6,72,29.46,10.0,East,6.9,-,N/A,,Overcast,80,2013-02-22 05:36:00
8:56 PM,-0.4,-7.6,72,29.46,10.0,East,8.1,-,N/A,,Overcast,90,2013-02-22 05:56:00
9:16 PM,-0.4,-9.4,66,29.46,10.0,East,6.9,-,N/A,,Overcast,100,2013-02-22 06:16:00
9:56 PM,-2.2,-9.4,71,29.47,10.0,East,5.8,-,N/A,,Overcast,80,2013-02-22 06:56:00
10:16 PM,-0.4,-9.4,66,29.48,10.0,ENE,6.9,-,N/A,,Overcast,70,2013-02-22 07:16:00
10:36 PM,-0.4,-9.4,66,29.48,10.0,ENE,8.1,-,N/A,,Overcast,70,2013-02-22 07:36:00
10:56 PM,-2.2,-9.4,71,29.48,10.0,ENE,5.8,-,N/A,,Overcast,70,2013-02-22 07:56:00
11:16 PM,-2.2,-9.4,71,29.49,10.0,ENE,8.1,-,N/A,,Overcast,70,2013-02-22 08:16:00
11:36 PM,-2.2,-11.2,66,29.49,10.0,ENE,8.1,-,N/A,,Overcast,70,2013-02-22 08:36:00
11:56 PM,-2.2,-9.4,71,29.49,10.0,East,12.7,-,N/A,,Overcast,80,2013-02-22 08:56:00